San Antonio Stinson, TX

8:46 PM CDT on June 23, 2017 (GMT -0500)
Stinson Municipal

Weather History for KSSF - February, 2015

Change the Weather History Date:

Thursday, February 12, 2015

  Actual Average Record
Temperature  
Mean Temperature 58 °F -  
Max Temperature 66 °F 64 °F 86 °F (2017)
Min Temperature 50 °F 44 °F 26 °F (2006)
Degree Days  
Heating Degree Days 7    
Growing Degree Days 8 (Base 50)    
Moisture  
Dew Point 39 °F    
Average Humidity 51    
Maximum Humidity 83    
Minimum Humidity 36    
Precipitation  
Precipitation 0.00 in - - ()
Sea Level Pressure  
Sea Level Pressure 30.28 in    
Wind  
Wind Speed 10 mph (NE)    
Max Wind Speed 16 mph    
Max Gust Speed 24 mph    
Visibility 10 miles    
Events      
Averages and records for this station are not official NWS values.
T = Trace of Precipitation, MM = Missing Value Source: NWS Daily Summary

Daily Weather History Graph

Daily Weather History Graph

Search for Another Location

Airport or City:

Trip Planner

Search our weather history database for the weather conditions in past years. The results will help you decide how hot, cold, wet, or windy it might be!

Date:

Astronomy

Feb. 12, 2015 Rise Set
Actual Time 7:15 AM CST 6:20 PM CST
Civil Twilight 6:51 AM CST 6:45 PM CST
Nautical Twilight 6:23 AM CST 7:13 PM CST
Astronomical Twilight 5:55 AM CST 7:41 PM CST
Moon 1:15 AM CST (2/12) 12:23 PM CST (2/12)
Length of Visible Light 11h 54m
Length of Day
11h 05m
Last Quarter, 44% of the Moon is Illuminated
Feb 12
Last Quarter
Feb 18
New
Feb 25
First Quarter
Mar 5
Full
Mar 13
Last Quarter

Hourly Weather History & Observations

Time (CST) Temp. Dew Point Humidity Pressure Visibility Wind Dir Wind Speed Gust Speed Precip Events Conditions
12:53 AM 57.0 °F 52.0 °F 83% 30.16 in 10.0 mi NE 3.5 mph - N/A   Clear
1:27 AM 60.1 °F 52.0 °F 75% 30.19 in 10.0 mi NNE 12.7 mph - N/A   Mostly Cloudy
1:53 AM 60.1 °F 48.9 °F 67% 30.20 in 10.0 mi NNE 12.7 mph - N/A   Overcast
2:24 AM 60.1 °F 46.0 °F 60% 30.21 in 10.0 mi NNE 13.8 mph 24.2 mph N/A   Overcast
2:53 AM 59.0 °F 44.1 °F 58% 30.20 in 10.0 mi NNE 12.7 mph - N/A   Overcast
3:53 AM 57.0 °F 41.0 °F 55% 30.21 in 10.0 mi NNE 12.7 mph - N/A   Partly Cloudy
4:53 AM 55.9 °F 39.9 °F 55% 30.23 in 10.0 mi NNE 15.0 mph 23.0 mph N/A   Overcast
5:53 AM 54.0 °F 39.9 °F 59% 30.26 in 10.0 mi North 13.8 mph 24.2 mph N/A   Overcast
6:53 AM 51.1 °F 39.0 °F 63% 30.30 in 10.0 mi North 10.4 mph - N/A   Clear
7:53 AM 50.0 °F 37.0 °F 61% 30.33 in 10.0 mi NNE 12.7 mph 21.9 mph N/A   Clear
8:53 AM 52.0 °F 37.0 °F 57% 30.36 in 10.0 mi NNE 16.1 mph 21.9 mph N/A   Clear
9:53 AM 53.1 °F 35.1 °F 50% 30.37 in 10.0 mi NNE 15.0 mph 20.7 mph N/A   Clear
10:53 AM 57.9 °F 36.0 °F 44% 30.35 in 10.0 mi NE 10.4 mph - N/A   Clear
11:53 AM 61.0 °F 37.0 °F 41% 30.34 in 10.0 mi NNE 11.5 mph - N/A   Clear
12:53 PM 64.0 °F 37.0 °F 37% 30.31 in 10.0 mi NE 12.7 mph 18.4 mph N/A   Clear
1:53 PM 64.9 °F 37.9 °F 37% 30.29 in 10.0 mi North 11.5 mph - N/A   Clear
2:53 PM 66.0 °F 39.0 °F 37% 30.27 in 10.0 mi NE 12.7 mph 17.3 mph N/A   Clear
3:53 PM 66.0 °F 37.9 °F 36% 30.26 in 10.0 mi NNE 11.5 mph - N/A   Clear
4:53 PM 64.9 °F 37.0 °F 36% 30.27 in 10.0 mi NNE 8.1 mph - N/A   Clear
5:53 PM 62.1 °F 37.0 °F 39% 30.27 in 10.0 mi NE 8.1 mph - N/A   Clear
6:53 PM 59.0 °F 37.0 °F 44% 30.29 in 10.0 mi ENE 6.9 mph - N/A   Clear
7:53 PM 57.0 °F 36.0 °F 45% 30.32 in 10.0 mi ENE 8.1 mph - N/A   Overcast
8:53 PM 55.9 °F 35.1 °F 45% 30.34 in 10.0 mi ENE 8.1 mph 17.3 mph N/A   Overcast
9:53 PM 55.0 °F 35.1 °F 47% 30.34 in 10.0 mi ENE 10.4 mph - N/A   Overcast
10:53 PM 53.1 °F 35.1 °F 50% 30.34 in 10.0 mi ENE 5.8 mph - N/A   Clear
11:53 PM 52.0 °F 37.0 °F 57% 30.34 in 10.0 mi NNE 4.6 mph - N/A   Overcast